Location: Unspecified
(0.0000°N, 0.0000°E)
Time: 21:02:08
(UTC+00:00)

IRIDIUM 151 - Visible Passes

Search period start: 14 January 2025 00:00
Search period end: 24 January 2025 00:00
Orbit: 776 x 779 km, 86.4° (Epoch: 14 January)

Date Brightness Start Highest point End Pass type
(mag) Time Alt. Az. Time Alt. Az. Time Alt. Az.
14 Jan ? 03:31:38 10° SE 03:35:52 25° E 03:37:26 22° ENE visible
14 Jan ? 05:12:48 10° SW 05:16:16 18° W 05:17:49 16° WNW visible
15 Jan ? 03:01:10 10° ESE 03:02:25 11° E 03:02:47 11° E visible
15 Jan ? 04:37:58 10° SSW 04:42:49 40° W 04:43:09 39° W visible
16 Jan ? 04:04:09 10° S 04:08:37 66° S 04:08:37 66° S visible
17 Jan ? 03:31:03 10° SSE 03:34:10 31° SE 03:34:10 31° SE visible
18 Jan ? 02:58:57 10° SE 02:59:48 13° SE 02:59:48 13° SE visible
18 Jan ? 04:38:42 10° SW 04:40:12 17° SW 04:40:12 17° SW visible
19 Jan ? 04:04:21 10° SSW 04:05:55 20° SSW 04:05:55 20° SSW visible
20 Jan ? 03:30:49 10° S 03:31:41 15° S 03:31:41 15° S visible
